McCook, NE

11:26 AM CST on January 20, 2017 (GMT -0600)
McCook Municipal

Weather History for KMCK - February, 2014

Change the Weather History Date:

Saturday, February 15, 2014

  Actual Average Record
Temperature  
Mean Temperature 43 °F 31 °F  
Max Temperature 53 °F 44 °F 69 °F (2011)
Min Temperature 32 °F 17 °F -22 °F (1909)
Degree Days  
Heating Degree Days 22    
Moisture  
Dew Point 28 °F    
Average Humidity 59    
Maximum Humidity 75    
Minimum Humidity 33    
Precipitation  
Precipitation 0.00 in 0.02 in 0.55 in (1975)
Month to date precipitation 0.03 0.29  
Year to date precipitation 0.23 0.80  
Sea Level Pressure  
Sea Level Pressure 29.95 in    
Wind  
Wind Speed 11 mph (WNW)    
Max Wind Speed 23 mph    
Max Gust Speed 30 mph    
Visibility 10 miles    
Events      
T = Trace of Precipitation, MM = Missing Value Source: NWS Daily Summary

Daily Weather History Graph

Daily Weather History Graph

Search for Another Location

Airport or City:

Trip Planner

Search our weather history database for the weather conditions in past years. The results will help you decide how hot, cold, wet, or windy it might be!

Date:

Astronomy

Feb. 15, 2014 Rise Set
Actual Time 7:35 AM CST 6:18 PM CST
Civil Twilight 7:07 AM CST 6:45 PM CST
Nautical Twilight 6:35 AM CST 7:17 PM CST
Astronomical Twilight 6:04 AM CST 7:49 PM CST
Moon 7:19 PM CST (2/15) 7:35 AM CST (2/15)
Length of Visible Light 11h 38m
Length of Day
10h 42m
Waxing Gibbous, 99% of the Moon is Illuminated
Feb 15
Waxing Gibbous
Feb 22
Last Quarter
Mar 1
New
Mar 8
First Quarter
Mar 16
Full

Hourly Weather History & Observations

Time (CST) Temp. Windchill Dew Point Humidity Pressure Visibility Wind Dir Wind Speed Gust Speed Precip Events Conditions
12:53 AM 36.0 °F 32.1 °F 27.0 °F 70% 29.91 in 10.0 mi SSE 4.6 mph - N/A   Overcast
1:53 AM 36.0 °F 29.6 °F 28.0 °F 73% 29.87 in 10.0 mi South 8.1 mph - N/A   Overcast
2:53 AM 39.0 °F 31.8 °F 26.1 °F 60% 29.83 in 10.0 mi SW 11.5 mph - N/A   Overcast
3:53 AM 39.0 °F 30.6 °F 25.0 °F 57% 29.78 in 10.0 mi SW 15.0 mph - N/A   Overcast
4:53 AM 37.9 °F - 25.0 °F 60% 29.76 in 10.0 mi North - - N/A   Clear
5:53 AM 37.9 °F 32.7 °F 25.0 °F 60% 29.75 in 10.0 mi Variable 6.9 mph - N/A   Scattered Clouds
6:53 AM 36.0 °F 30.3 °F 26.1 °F 67% 29.78 in 10.0 mi WNW 6.9 mph - N/A   Mostly Cloudy
7:53 AM 35.1 °F 27.9 °F 27.0 °F 72% 29.83 in 10.0 mi NW 9.2 mph - N/A   Partly Cloudy
8:53 AM 39.9 °F 31.8 °F 30.9 °F 70% 29.87 in 10.0 mi NNW 15.0 mph - N/A   Partly Cloudy
9:53 AM 45.0 °F 37.1 °F 34.0 °F 65% 29.92 in 10.0 mi North 19.6 mph 29.9 mph N/A   Mostly Cloudy
10:53 AM 46.9 °F - 34.0 °F 61% 29.94 in 10.0 mi NNW 20.7 mph - N/A   Overcast
11:53 AM 48.9 °F - 34.0 °F 56% 29.94 in 10.0 mi NNW 13.8 mph - N/A   Overcast
12:53 PM 50.0 °F - 34.0 °F 54% 29.96 in 10.0 mi NW 23.0 mph 28.8 mph N/A   Overcast
1:53 PM 52.0 °F - 35.1 °F 53% 29.96 in 10.0 mi NNW 21.9 mph 27.6 mph N/A   Overcast
2:53 PM 52.0 °F - 30.9 °F 45% 29.98 in 10.0 mi NNW 19.6 mph - N/A   Overcast
3:53 PM 53.1 °F - 32.0 °F 45% 30.00 in 10.0 mi NNW 18.4 mph - N/A   Overcast
4:53 PM 51.1 °F - 23.0 °F 33% 30.01 in 10.0 mi NNW 19.6 mph 28.8 mph N/A   Partly Cloudy
5:53 PM 48.0 °F - 27.0 °F 44% 30.05 in 10.0 mi NW 11.5 mph - N/A   Clear
6:53 PM 39.9 °F 32.9 °F 24.1 °F 53% 30.10 in 10.0 mi NW 11.5 mph - N/A   Clear
7:53 PM 41.0 °F 34.7 °F 25.0 °F 53% 30.12 in 10.0 mi WNW 10.4 mph - N/A   Overcast
8:53 PM 39.0 °F 34.0 °F 26.1 °F 60% 30.11 in 10.0 mi West 6.9 mph - N/A   Overcast
9:53 PM 37.0 °F 29.3 °F 26.1 °F 65% 30.12 in 10.0 mi WNW 11.5 mph - N/A   Scattered Clouds
10:53 PM 34.0 °F 28.0 °F 26.1 °F 73% 30.12 in 10.0 mi SW 6.9 mph - N/A   Clear
11:53 PM 34.0 °F 28.0 °F 27.0 °F 75% 30.12 in 10.0 mi WSW 6.9 mph - N/A   Clear